Regional Weather Roundup
Issued by NWS Grand Forks, ND

Home | Current Version | Previous Version | Graphics & Text | Print | Product List | Glossary On
Versions: 1 2 3 4 5 6 7 8 9 10 11 12 13 14 15 16 17 18 19 20 21 22 23 24 25 26 27 28 29 30 31 32 33 34 35 36 37 38 39 40 41 42 43 44 45 46 47 48 49 50
000
ASUS43 KFGF 302231
RWRFGF
PRAIRIE TO PINES  WEATHER ROUNDUP
NATIONAL WEATHER SERVICE EASTERN NORTH DAKOTA/GRAND FORKS ND
500 PM CDT THU MAR 30 2017

 **SATELLITE DATA USED TO AUGMENT SKY COVER AT AUTOMATED STATIONS**
 *****  WEATHER ACROSS EASTERN NORTH DAKOTA  *****

CITY           SKY/WX    TMP DP  RH WIND       PRES   REMARKS
GRAND FORKS    FAIR      54  42  64 S7        29.85F
GRAND FRKS AFB FAIR      53  38  56 S8        29.85F
DEVILS LAKE    FAIR      53  38  56 SE14      29.83R
FARGO          FAIR      56  36  47 SE5       29.84S
WAHPETON ARPT  FAIR      54  32  43 E5        29.84S
$$

 ***** WEATHER ACROSS CENTRAL AND WESTERN NORTH DAKOTA  *****

CITY           SKY/WX    TMP DP  RH WIND       PRES   REMARKS
BISMARCK       FAIR      59  34  39 S12       29.79S
MINOT          CLOUDY    56  38  50 SE12      29.76R
JAMESTOWN      FAIR      51  38  60 SE10      29.82S
MINOT AFB      PTSUNNY   53  40  63 S10       29.75R
GARRISON         N/A     55  36  48 S14       29.75S
WILLISTON      FAIR      64  41  42 SE9       29.68S
DICKINSON      PTSUNNY   56  33  42 S20       29.70S
HETTINGER      CLOUDY    55  33  43 SE14      29.75S
$$

 *****  OTHER AIRPORT OBSERVATIONS IN OUR AREA  *****

CITY           SKY/WX    TMP DP  RH WIND       PRES   REMARKS
WALHALLA       NOT AVBL
GRAFTON AIRPOR FAIR      54  39  58 S12       29.88R
VALLEY CITY AR FAIR      50  37  62 SE9G15    29.85S
CANDO          NOT AVBL
CAVALIER APRT  MOCLDY    52  41  66 S10       29.85S
GWINNER        PTCLDY    52  36  54 MISG      29.84F
SHEYENNE NWR     N/A     54  35  49 S5        29.95S
ROLLA          FAIR      46  43  87 S10G16    29.82R
 ***** THE ABOVE OBSERVATIONS ARE NON NWS ARE NOT QUALITY
       CONTROLLED AND MAY MIS-REPORT RAIN FOR SNOW...
$$

  *****  WEATHER ACROSS NORTHERN MINNESOTA  *****

CITY           SKY/WX    TMP DP  RH WIND       PRES   REMARKS
FLAG ISLAND    FAIR      46  34  61 CALM      29.88S
WARROAD        FAIR      48  39  71 NE7       29.89S
ROSEAU         FAIR      54  37  54 CALM      29.88S
HALLOCK        PTSUNNY   52  45  76 S9        29.87S
THF RVR FALLS  FAIR      52  38  58 CALM      29.88S
BAUDETTE       FAIR      57  31  37 VRB3      29.86F
WASKISH        FAIR      52  34  50 NW7       29.87S
CROOKSTON      FAIR      54  39  58 CALM        N/A
STEPHEN NDAWN    N/A     52  41  66 SE8         N/A
GREENBUSH NDAW   N/A     52  37  58 S3          N/A
$$
  *****  WEATHER ACROSS CENTRAL AND WEST MINNESOTA  *****

CITY           SKY/WX    TMP DP  RH WIND       PRES   REMARKS
FOSSTON        FAIR      61  36  39 CALM      29.86R
BEMIDJI        FAIR      54  25  32 E10       29.86F
PARK RAPIDS    FAIR      54  25  32 E8        29.84S
ELBOW LAKE     CLOUDY    51  34  52 SE3       29.84S HAZE
WADENA         FAIR      54  28  37 E10G16    29.84S
DETROIT LAKES  FAIR      55  28  35 SE9       29.84F
MOORHEAD       FAIR      55  34  44 CALM      29.85S
FERGUS FALLS   FAIR      55  30  38 SE6       29.86S
MORRIS MN      CLOUDY    48  36  61 E12       29.83S
STAPLES        FAIR      54  27  35 NE8       29.84F
$$
  *****  WEATHER ELSEWHERE ACROSS MINNESOTA  *****

CITY           SKY/WX    TMP DP  RH WIND       PRES   REMARKS
DULUTH         FAIR      43  31  62 E13       29.91R
INTRNTL FALLS  FAIR      54  32  43 NE9       29.89S
ELY            FAIR      50  21  32 E10       29.90F
CLOQUET        FAIR      43  27  52 E9G16     29.89F
WHEATON        CLOUDY    50  34  53 E6        29.86S
BRAINERD       FAIR      53  27  36 E14       29.85F
HIBBING        FAIR      51  20  29 E12       29.88S
ALEXANDRIA     CLOUDY    50  33  52 E16       29.84F
SAINT CLOUD    CLOUDY    50  34  54 E14G20    29.83F
MINNEAPOLIS    CLOUDY    47  34  60 E12       29.81F
$$

  *****  WEATHER ACROSS SOUTH DAKOTA  *****

CITY           SKY/WX    TMP DP  RH WIND       PRES   REMARKS
SIOUX FALLS    CLOUDY    44  39  82 NE14      29.79S
BROOKINGS      CLOUDY    44  36  73 NE12      29.79F
WATERTOWN      CLOUDY    44  35  70 NE10      29.82S
HURON          CLOUDY    46  36  68 NE12      29.83R
SISSETON         N/A     49  38  65 SE7       29.84R
ABERDEEN       CLOUDY    48  33  56 E10       29.84S
MITCHELL       CLOUDY    47  37  68 NE12      29.82S
PIERRE         CLOUDY    46  35  65 SE7       29.80S
MOBRIDGE       FAIR      52  34  50 S10       29.78F
RAPID CITY     PTSUNNY   54  37  52 SE13      29.71F
$$

  *****  SOME WEATHER IN NEARBY STATES *****

CITY           SKY/WX    TMP DP  RH WIND       PRES   REMARKS
GLASGOW MT     FAIR      63  29  27 N7        29.70R
GREAT FALLS MT CLOUDY    57  24  28 N8        29.73R
CHEYENNE WY    LGT RAIN  52  35  52 W13       29.71R
SCOTTSBLUFF NE CLOUDY    60  39  45 E12       29.67F
OMAHA NE       CLOUDY    44  38  79 N15       29.71R
DES MOINES IA  CLOUDY    44  40  85 NE16      29.66R
DAVENPORT IA   CLOUDY    42  40  92 NE21G28   29.59S
CHICAGO IL     CLOUDY    44  42  93 NE12      29.60F
EAU CLAIRE WI  CLOUDY    44  34  67 E10       29.80F
LA CROSSE WI   CLOUDY    42  35  76 NE15G23   29.74F
$$

  *****  SOME NATIONAL WEATHER *****

CITY           SKY/WX    TMP DP  RH WIND       PRES   REMARKS
LA GUARDIA NY  PTSUNNY   47  27  45 S12       30.14R
RALEIGH NC     PTSUNNY   65  46  50 SE8       30.02F
ATLANTA GA     PTSUNNY   80  48  32 S15G23    29.81F
NEW ORLEANS LA PTSUNNY   69  62  78 SE9       29.73F
OKLAHOMA CITY  FAIR      62  44  51 NW14      29.73F
ALBUQUERQUE NM PTSUNNY   69  23  17 S15       29.79F
SALT LAKE CITY CLOUDY    49  43  80 E9        29.59F
LOS ANGELES CA FAIR      67  54  63 SW15      29.84F
BOISE ID       LGT RAIN  38  37  97 NW23G33   29.79R FOG
SEATTLE WA     PTSUNNY   50  41  71 NE13      30.24R
$$

*** WEATHER ACROSS MANITOBA...SASKATCHEWAN AND ONTARIO ***
                ***ONTARIO***

CITY           SKY/WX    TMP DP  RH WIND       PRES   REMARKS
GERALDTON      PTSUNNY   46  19  34 E5        30.01S
THUNDER BAY    MOSUNNY   39  30  70 E10       30.03S
SIOUX LOOKOUT  PTSUNNY   54  30  40 VRB5      29.90F
TORONTO        FLURRIES  32  30  93 E15G23    30.03F WCI  22
BIG TROUT LK   CLOUDY    39  34  81 SW7       29.86S
PICKLE LAKE    CLOUDY    50  28  43 S8        29.90F
DRYDEN         PTSUNNY   52  32  46 N3        29.90S
KENORA         PTSUNNY   48  34  57 VRB2      29.90S
$$
                *** MANITOBA***

CITY           SKY/WX    TMP DP  RH WIND       PRES   REMARKS
BRANDON        CLOUDY    48  39  71 E5        29.82R
DAUPHIN        CLOUDY    36  34  93 NE6       29.89R FOG
ISLAND LAKE    CLOUDY    37  34  87 N6        29.88R
PILOT MOUND      N/A     48  43  81 S14         N/A
THE PAS        CLOUDY    39  34  81 N5        29.92R
THOMPSON       CLOUDY    37  30  75 NE6       29.94R
WINNIPEG       MOSUNNY   52  41  66 S16G22    29.86S
LYNN LAKE      CLOUDY    41  23  48 E7        29.97R
CHURCHILL      PTSUNNY   21  18  86 N12       30.08R WCI   9
GILLAM         PTSUNNY   34  23  64 N13       29.96R WCI  25
$$
                ***SASKATCHEWAN***

CITY           SKY/WX    TMP DP  RH WIND       PRES   REMARKS
ESTEVAN        PTSUNNY   55  41  58 SE15      29.74R
KINDERSLEY     MOSUNNY   48  37  66 NE18G25   29.81R
LLOYDMINSTER   LGT RAIN  39  37  93 NE7       29.92R
PRINCE ALBERT  PTSUNNY   46  34  61 N5        29.91R
REGINA         CLOUDY    59  32  36 NE12      29.74R
YORKTON        MOSUNNY   43  39  87 N13       29.82R
N. BATTLEFORD  CLOUDY    41  39  93 E5        29.93R
LA RONGE       CLOUDY    39  30  70 W5        29.96R
SASKATOON      CLOUDY    39  34  81 NE15      29.89R
SWIFT CURRENT  MOSUNNY   59  30  33 VRB6G18   29.70S
$$
NOTE: THESE ARE AUTOMATED STATIONS WITH LIMITED QUALITY CONTROL
      "FAIR" INDICATES FEW OR NO CLOUDS BELOW 12,000 FEET WITH NO
      SIGNIFICANT WEATHER AND/OR OBSTRUCTIONS TO VISIBILITY.
      SKY/WX - SKY CONDITION AND SIGNIFICANT WEATHER.
      TMP - AIR TEMPERATURE.    DP   - DEWPOINT TEMPERATURE.
      RH  - RELATIVE HUMIDITY.  PRES - PRESSURE.
      HX  - HEAT INDEX.         WCI  - WIND CHILL INDEX.
$



USA.gov is the U.S. government's official web portal to all federal, state and local government web resources and services.